UTA229 USTR-USHS

Flight info

Callsign UTA229
Flight time 1h 23m
Altitude 16000
Route N0240F160 LAKED L165 LUGIK W320 PIGUR A120 OLEMI
Aircraft AN24/M-I/L

Departure

Time 2026-05-05 12:54
Airport Roshchino International Airport (USTR)

Arrival

Time 2026-05-05 14:18
Airport Sovetskiy Airport (USHS)
Time Latitude Longitude Altitude Speed Heading
2026-05-05 11:56 57.17770 65.35076 334 ft 0 kts 44°
2026-05-05 12:49 57.17775 65.35085 333 ft 5 kts 44°
2026-05-05 12:49 57.17770 65.35175 334 ft 7 kts 138°
2026-05-05 12:49 57.17710 65.35284 334 ft 19 kts 134°
2026-05-05 12:50 57.17622 65.35450 335 ft 15 kts 133°
2026-05-05 12:50 57.17537 65.35606 336 ft 16 kts 134°
2026-05-05 12:50 57.17458 65.35708 336 ft 12 kts 182°
2026-05-05 12:50 57.17390 65.35699 337 ft 2 kts 183°
2026-05-05 12:51 57.17348 65.35667 339 ft 10 kts 225°
2026-05-05 12:52 57.17308 65.35590 340 ft 10 kts 228°
2026-05-05 12:52 57.17327 65.35448 342 ft 15 kts 313°
2026-05-05 12:52 57.17393 65.35325 341 ft 12 kts 314°
2026-05-05 12:52 57.17419 65.35277 340 ft 0 kts 314°
2026-05-05 12:53 57.17555 65.35024 337 ft 66 kts 315°
2026-05-05 12:54 57.18682 65.32931 435 ft 145 kts 315°
2026-05-05 12:54 57.19417 65.31564 752 ft 156 kts 314°
2026-05-05 12:54 57.20210 65.30051 1002 ft 171 kts 314°
2026-05-05 12:55 57.21080 65.28503 1312 ft 178 kts 324°
2026-05-05 12:55 57.22235 65.27655 1607 ft 184 kts 352°
2026-05-05 12:55 57.23465 65.27926 2051 ft 179 kts 20°
2026-05-05 12:55 57.24472 65.29247 2337 ft 183 kts 43°
2026-05-05 12:56 57.25387 65.30894 2701 ft 181 kts 36°
2026-05-05 12:56 57.26514 65.31868 2987 ft 181 kts 13°
2026-05-05 12:56 57.27736 65.32413 3275 ft 183 kts 12°
2026-05-05 12:56 57.28965 65.32983 3601 ft 182 kts 12°
2026-05-05 12:57 57.30173 65.33529 3911 ft 181 kts 11°
2026-05-05 12:57 57.31422 65.33993 4203 ft 182 kts
2026-05-05 12:57 57.32634 65.34421 4602 ft 176 kts
2026-05-05 12:57 57.33839 65.34795 4946 ft 175 kts
2026-05-05 12:58 57.35026 65.35176 5246 ft 175 kts
2026-05-05 12:58 57.36218 65.35542 5613 ft 171 kts
2026-05-05 12:58 57.37384 65.35831 5889 ft 173 kts
2026-05-05 12:58 57.38573 65.36204 6155 ft 175 kts
2026-05-05 12:59 57.39762 65.36627 6482 ft 172 kts
2026-05-05 12:59 57.40940 65.37065 6756 ft 173 kts
2026-05-05 12:59 57.42116 65.37472 7050 ft 172 kts
2026-05-05 13:00 57.44434 65.38328 7613 ft 173 kts 10°
2026-05-05 13:00 57.45614 65.38789 7846 ft 175 kts 10°
2026-05-05 13:01 57.49186 65.40122 8610 ft 177 kts 10°
2026-05-05 13:01 57.50365 65.40607 8923 ft 173 kts 11°
2026-05-05 13:01 57.51549 65.41137 9152 ft 175 kts 12°
2026-05-05 13:01 57.52730 65.41663 9414 ft 174 kts 11°
2026-05-05 13:02 57.53885 65.42153 9693 ft 172 kts 11°
2026-05-05 13:02 57.55059 65.42650 9935 ft 173 kts 11°
2026-05-05 13:02 57.56215 65.43144 10174 ft 173 kts 11°
2026-05-05 13:02 57.57382 65.43644 10411 ft 173 kts 11°
2026-05-05 13:03 57.58556 65.44144 10649 ft 173 kts 11°
2026-05-05 13:03 57.59721 65.44641 10878 ft 173 kts 11°
2026-05-05 13:03 57.60891 65.45142 11109 ft 173 kts 11°
2026-05-05 13:03 57.62058 65.45644 11335 ft 173 kts 11°
2026-05-05 13:04 57.63224 65.46143 11554 ft 173 kts 11°
2026-05-05 13:04 57.64387 65.46640 11775 ft 172 kts 11°
2026-05-05 13:04 57.65560 65.47143 11991 ft 172 kts 11°
2026-05-05 13:04 57.66731 65.47598 12210 ft 172 kts
2026-05-05 13:05 57.67897 65.48011 12416 ft 172 kts
2026-05-05 13:05 57.69073 65.48436 12616 ft 172 kts
2026-05-05 13:05 57.70235 65.48856 12813 ft 172 kts
2026-05-05 13:05 57.71409 65.49281 13010 ft 172 kts
2026-05-05 13:06 57.72599 65.49712 13183 ft 174 kts
2026-05-05 13:06 57.73775 65.50137 13353 ft 175 kts
2026-05-05 13:06 57.74985 65.50573 13520 ft 176 kts
2026-05-05 13:06 57.76178 65.51003 13688 ft 176 kts
2026-05-05 13:07 57.77384 65.51438 13864 ft 177 kts
2026-05-05 13:07 57.78591 65.51874 14033 ft 177 kts
2026-05-05 13:07 57.79786 65.52305 14198 ft 177 kts
2026-05-05 13:07 57.81009 65.52745 14362 ft 178 kts
2026-05-05 13:08 57.82216 65.53181 14526 ft 178 kts
2026-05-05 13:08 57.83425 65.53622 14685 ft 178 kts
2026-05-05 13:08 57.84627 65.54060 14836 ft 179 kts
2026-05-05 13:08 57.85852 65.54505 14972 ft 180 kts
2026-05-05 13:09 57.87086 65.54954 15113 ft 181 kts
2026-05-05 13:09 57.88319 65.55401 15256 ft 181 kts
2026-05-05 13:09 57.89563 65.55853 15399 ft 182 kts
2026-05-05 13:09 57.90794 65.56300 15541 ft 182 kts 10°
2026-05-05 13:10 57.92029 65.56748 15681 ft 182 kts 10°
2026-05-05 13:10 57.93282 65.57203 15827 ft 182 kts 10°
2026-05-05 13:10 57.94521 65.57652 15892 ft 186 kts 10°
2026-05-05 13:10 57.95811 65.58123 15920 ft 191 kts 10°
2026-05-05 13:11 57.97137 65.58607 15915 ft 195 kts 10°
2026-05-05 13:11 57.98485 65.59100 15897 ft 199 kts 10°
2026-05-05 13:11 57.99854 65.59497 15922 ft 200 kts
2026-05-05 13:11 58.01250 65.59771 15882 ft 205 kts
2026-05-05 13:12 58.02680 65.60054 15841 ft 208 kts
2026-05-05 13:12 58.04105 65.60339 15932 ft 205 kts
2026-05-05 13:12 58.05514 65.60622 15926 ft 208 kts
2026-05-05 13:12 58.06979 65.60918 15863 ft 211 kts
2026-05-05 13:13 58.08434 65.61211 15866 ft 212 kts
2026-05-05 13:13 58.09892 65.61500 15886 ft 212 kts
2026-05-05 13:13 58.11372 65.61797 15888 ft 213 kts
2026-05-05 13:13 58.12829 65.62090 15889 ft 214 kts
2026-05-05 13:14 58.14307 65.62389 15893 ft 214 kts
2026-05-05 13:14 58.15791 65.62691 15884 ft 215 kts
2026-05-05 13:14 58.17276 65.62991 15896 ft 215 kts
2026-05-05 13:14 58.18755 65.63289 15890 ft 216 kts
2026-05-05 13:15 58.20245 65.63590 15891 ft 215 kts
2026-05-05 13:15 58.21727 65.63892 15881 ft 216 kts
2026-05-05 13:15 58.23231 65.64198 15901 ft 215 kts
2026-05-05 13:15 58.24707 65.64495 15884 ft 216 kts
2026-05-05 13:16 58.26210 65.64800 15887 ft 215 kts
2026-05-05 13:16 58.27689 65.65102 15903 ft 215 kts
2026-05-05 13:16 58.29176 65.65406 15885 ft 216 kts
2026-05-05 13:16 58.30674 65.65709 15894 ft 216 kts
2026-05-05 13:17 58.32170 65.66013 15870 ft 217 kts
2026-05-05 13:17 58.33661 65.66316 15886 ft 216 kts
2026-05-05 13:17 58.35145 65.66620 15886 ft 217 kts
2026-05-05 13:17 58.36657 65.66930 15884 ft 216 kts
2026-05-05 13:18 58.38149 65.67236 15888 ft 216 kts
2026-05-05 13:18 58.39630 65.67537 15879 ft 216 kts
2026-05-05 13:18 58.41129 65.67841 15900 ft 216 kts
2026-05-05 13:18 58.42611 65.68145 15881 ft 216 kts
2026-05-05 13:19 58.44110 65.68452 15886 ft 216 kts
2026-05-05 13:19 58.45603 65.68761 15889 ft 216 kts
2026-05-05 13:19 58.47081 65.69066 15885 ft 217 kts
2026-05-05 13:19 58.48591 65.69379 15903 ft 216 kts
2026-05-05 13:20 58.50073 65.69682 15888 ft 217 kts
2026-05-05 13:20 58.51570 65.69990 15899 ft 217 kts
2026-05-05 13:20 58.53077 65.70300 15890 ft 217 kts
2026-05-05 13:20 58.54577 65.70609 15886 ft 218 kts
2026-05-05 13:21 58.56082 65.70921 15892 ft 217 kts
2026-05-05 13:21 58.57565 65.71230 15873 ft 218 kts
2026-05-05 13:21 58.59072 65.71544 15884 ft 217 kts
2026-05-05 13:21 58.60571 65.71852 15884 ft 217 kts
2026-05-05 13:22 58.62074 65.72163 15882 ft 218 kts
2026-05-05 13:22 58.63569 65.72474 15891 ft 217 kts
2026-05-05 13:22 58.65060 65.72784 15872 ft 218 kts
2026-05-05 13:22 58.66571 65.73100 15888 ft 218 kts
2026-05-05 13:23 58.68079 65.73412 15880 ft 218 kts
2026-05-05 13:23 58.69582 65.73723 15864 ft 219 kts
2026-05-05 13:23 58.71085 65.74035 15883 ft 218 kts
2026-05-05 13:23 58.72595 65.74374 15877 ft 219 kts
2026-05-05 13:24 58.74096 65.74738 15861 ft 219 kts
2026-05-05 13:24 58.75607 65.75105 15886 ft 218 kts
2026-05-05 13:24 58.77101 65.75470 15868 ft 218 kts
2026-05-05 13:24 58.78601 65.75834 15880 ft 218 kts
2026-05-05 13:25 58.80104 65.76198 15884 ft 218 kts
2026-05-05 13:25 58.81607 65.76562 15890 ft 218 kts
2026-05-05 13:25 58.83109 65.76930 15894 ft 218 kts
2026-05-05 13:25 58.84625 65.77300 15881 ft 219 kts
2026-05-05 13:26 58.86140 65.77673 15898 ft 219 kts
2026-05-05 13:26 58.87647 65.78041 15882 ft 219 kts
2026-05-05 13:26 58.89159 65.78410 15896 ft 219 kts
2026-05-05 13:26 58.90673 65.78780 15882 ft 220 kts
2026-05-05 13:27 58.92181 65.79150 15891 ft 220 kts
2026-05-05 13:27 58.93681 65.79519 15896 ft 219 kts
2026-05-05 13:27 58.95206 65.79894 15884 ft 220 kts
2026-05-05 13:27 58.96718 65.80263 15897 ft 219 kts
2026-05-05 13:28 58.98222 65.80632 15873 ft 221 kts
2026-05-05 13:28 58.99752 65.81009 15890 ft 219 kts
2026-05-05 13:28 59.01255 65.81381 15882 ft 218 kts
2026-05-05 13:28 59.02744 65.81747 15891 ft 217 kts
2026-05-05 13:29 59.04226 65.82113 15877 ft 217 kts
2026-05-05 13:29 59.05722 65.82483 15897 ft 215 kts
2026-05-05 13:29 59.07207 65.82852 15895 ft 216 kts
2026-05-05 13:29 59.08712 65.83221 15891 ft 217 kts
2026-05-05 13:30 59.10200 65.83585 15889 ft 218 kts
2026-05-05 13:30 59.11708 65.83956 15897 ft 219 kts
2026-05-05 13:30 59.13216 65.84327 15874 ft 220 kts
2026-05-05 13:30 59.14745 65.84705 15894 ft 220 kts
2026-05-05 13:31 59.16254 65.85079 15885 ft 220 kts
2026-05-05 13:31 59.17783 65.85460 15887 ft 221 kts
2026-05-05 13:31 59.19299 65.85838 15897 ft 221 kts
2026-05-05 13:31 59.20812 65.86217 15871 ft 222 kts
2026-05-05 13:32 59.22357 65.86604 15890 ft 222 kts
2026-05-05 13:32 59.23879 65.86983 15885 ft 222 kts
2026-05-05 13:32 59.25410 65.87363 15874 ft 223 kts
2026-05-05 13:32 59.26924 65.87743 15889 ft 222 kts
2026-05-05 13:33 59.28467 65.88129 15871 ft 223 kts
2026-05-05 13:33 59.29989 65.88512 15880 ft 221 kts
2026-05-05 13:33 59.31511 65.88894 15881 ft 221 kts
2026-05-05 13:33 59.33027 65.89274 15879 ft 221 kts
2026-05-05 13:34 59.34545 65.89655 15878 ft 221 kts
2026-05-05 13:34 59.36077 65.90042 15889 ft 221 kts
2026-05-05 13:34 59.37595 65.90427 15877 ft 221 kts
2026-05-05 13:34 59.39107 65.90808 15893 ft 221 kts
2026-05-05 13:35 59.40638 65.91191 15871 ft 222 kts
2026-05-05 13:35 59.42174 65.91578 15881 ft 221 kts
2026-05-05 13:35 59.43677 65.91958 15884 ft 221 kts
2026-05-05 13:35 59.45211 65.92347 15871 ft 221 kts
2026-05-05 13:36 59.46728 65.92734 15887 ft 220 kts
2026-05-05 13:36 59.48239 65.93115 15878 ft 221 kts
2026-05-05 13:36 59.49766 65.93499 15862 ft 222 kts
2026-05-05 13:36 59.51293 65.93885 15876 ft 221 kts
2026-05-05 13:37 59.52828 65.94275 15880 ft 221 kts
2026-05-05 13:37 59.54343 65.94660 15871 ft 222 kts
2026-05-05 13:37 59.55874 65.95051 15868 ft 221 kts
2026-05-05 13:37 59.57394 65.95440 15887 ft 221 kts
2026-05-05 13:38 59.58917 65.95830 15870 ft 222 kts
2026-05-05 13:38 59.60437 65.96221 15874 ft 222 kts
2026-05-05 13:38 59.61955 65.96611 15875 ft 222 kts
2026-05-05 13:38 59.63485 65.96999 15867 ft 222 kts
2026-05-05 13:39 59.65023 65.97368 15867 ft 220 kts
2026-05-05 13:39 59.66540 65.97702 15869 ft 220 kts
2026-05-05 13:39 59.68060 65.98037 15862 ft 221 kts
2026-05-05 13:39 59.69570 65.98370 15879 ft 220 kts
2026-05-05 13:40 59.71084 65.98634 15873 ft 219 kts 356°
2026-05-05 13:40 59.72562 65.98102 15898 ft 215 kts 338°
2026-05-05 13:40 59.73846 65.96606 15873 ft 215 kts 319°
2026-05-05 13:40 59.74826 65.94389 15878 ft 214 kts 307°
2026-05-05 13:41 59.75690 65.92008 15832 ft 217 kts 305°
2026-05-05 13:41 59.76544 65.89539 15853 ft 215 kts 304°
2026-05-05 13:41 59.77373 65.87128 15915 ft 212 kts 305°
2026-05-05 13:41 59.78212 65.84687 15858 ft 215 kts 305°
2026-05-05 13:42 59.79054 65.82230 15825 ft 216 kts 305°
2026-05-05 13:42 59.79866 65.79781 15922 ft 212 kts 302°
2026-05-05 13:42 59.80608 65.77252 15914 ft 213 kts 300°
2026-05-05 13:42 59.81327 65.74647 15826 ft 217 kts 298°
2026-05-05 13:43 59.82011 65.72013 15885 ft 214 kts 298°
2026-05-05 13:43 59.82684 65.69401 15924 ft 213 kts 298°
2026-05-05 13:43 59.83358 65.66787 15857 ft 215 kts 298°
2026-05-05 13:43 59.84049 65.64103 15858 ft 215 kts 298°
2026-05-05 13:44 59.84716 65.61500 15929 ft 211 kts 298°
2026-05-05 13:44 59.85381 65.58908 15884 ft 214 kts 298°
2026-05-05 13:44 59.86065 65.56239 15834 ft 216 kts 298°
2026-05-05 13:44 59.86732 65.53630 15916 ft 212 kts 298°
2026-05-05 13:45 59.87399 65.51017 15915 ft 213 kts 298°
2026-05-05 13:45 59.88081 65.48350 15831 ft 217 kts 298°
2026-05-05 13:45 59.88759 65.45690 15896 ft 213 kts 298°
2026-05-05 13:45 59.89422 65.43085 15920 ft 212 kts 298°
2026-05-05 13:46 59.90092 65.40451 15837 ft 216 kts 298°
2026-05-05 13:46 59.90761 65.37819 15862 ft 214 kts 298°
2026-05-05 13:46 59.91425 65.35199 15917 ft 212 kts 298°
2026-05-05 13:46 59.92093 65.32555 15861 ft 215 kts 297°
2026-05-05 13:47 59.92772 65.29874 15827 ft 216 kts 297°
2026-05-05 13:47 59.93436 65.27251 15911 ft 212 kts 297°
2026-05-05 13:47 59.94097 65.24628 15887 ft 214 kts 297°
2026-05-05 13:47 59.94773 65.21961 15810 ft 217 kts 298°
2026-05-05 13:48 59.95478 65.19348 15889 ft 213 kts 299°
2026-05-05 13:48 59.96188 65.16763 15903 ft 212 kts 299°
2026-05-05 13:48 59.96904 65.14153 15812 ft 217 kts 299°
2026-05-05 13:48 59.97615 65.11555 15846 ft 214 kts 299°
2026-05-05 13:49 59.98325 65.08955 15916 ft 211 kts 298°
2026-05-05 13:49 59.99031 65.06366 15852 ft 215 kts 298°
2026-05-05 13:49 59.99740 65.03758 15823 ft 216 kts 298°
2026-05-05 13:49 60.00448 65.01149 15906 ft 212 kts 298°
2026-05-05 13:50 60.01150 64.98568 15875 ft 213 kts 299°
2026-05-05 13:50 60.01862 64.95944 15809 ft 216 kts 299°
2026-05-05 13:50 60.02565 64.93352 15896 ft 212 kts 299°
2026-05-05 13:50 60.03263 64.90767 15898 ft 212 kts 298°
2026-05-05 13:51 60.03970 64.88152 15817 ft 216 kts 298°
2026-05-05 13:51 60.04683 64.85504 15877 ft 212 kts 299°
2026-05-05 13:51 60.05373 64.82951 15908 ft 211 kts 298°
2026-05-05 13:51 60.06071 64.80363 15823 ft 214 kts 298°
2026-05-05 13:52 60.06845 64.77842 15861 ft 211 kts 309°
2026-05-05 13:52 60.07950 64.75969 15954 ft 209 kts 326°
2026-05-05 13:52 60.09242 64.74557 15791 ft 218 kts 331°
2026-05-05 13:52 60.10633 64.73292 15782 ft 218 kts 334°
2026-05-05 13:53 60.12017 64.72244 15934 ft 212 kts 338°
2026-05-05 13:53 60.13417 64.71294 15884 ft 215 kts 338°
2026-05-05 13:53 60.14854 64.70317 15822 ft 218 kts 338°
2026-05-05 13:53 60.16269 64.69353 15875 ft 215 kts 338°
2026-05-05 13:54 60.17675 64.68395 15920 ft 213 kts 338°
2026-05-05 13:54 60.19094 64.67424 15829 ft 218 kts 338°
2026-05-05 13:54 60.20519 64.66448 15841 ft 217 kts 338°
2026-05-05 13:54 60.21941 64.65479 15908 ft 213 kts 338°
2026-05-05 13:55 60.23347 64.64519 15842 ft 217 kts 338°
2026-05-05 13:55 60.24770 64.63543 15810 ft 218 kts 338°
2026-05-05 13:55 60.26200 64.62560 15903 ft 214 kts 338°
2026-05-05 13:55 60.27597 64.61600 15869 ft 216 kts 338°
2026-05-05 13:56 60.29029 64.60613 15805 ft 219 kts 338°
2026-05-05 13:56 60.30470 64.59624 15883 ft 215 kts 338°
2026-05-05 13:56 60.31880 64.58657 15899 ft 215 kts 338°
2026-05-05 13:56 60.33297 64.57680 15816 ft 219 kts 338°
2026-05-05 13:57 60.34737 64.56684 15856 ft 216 kts 338°
2026-05-05 13:57 60.36130 64.55723 15914 ft 213 kts 338°
2026-05-05 13:57 60.37534 64.54750 15832 ft 217 kts 338°
2026-05-05 13:57 60.38961 64.53760 15818 ft 217 kts 338°
2026-05-05 13:58 60.40377 64.52733 15902 ft 213 kts 335°
2026-05-05 13:58 60.41750 64.51625 15869 ft 215 kts 335°
2026-05-05 13:58 60.43140 64.50487 15789 ft 218 kts 334°
2026-05-05 13:58 60.44535 64.49353 15867 ft 215 kts 335°
2026-05-05 13:59 60.47300 64.47096 15812 ft 217 kts 335°
2026-05-05 13:59 60.48696 64.45956 15842 ft 215 kts 334°
2026-05-05 14:00 60.51447 64.43711 15843 ft 216 kts 335°
2026-05-05 14:00 60.52387 64.42956 15815 ft 218 kts 335°
2026-05-05 14:00 60.54226 64.41497 15906 ft 213 kts 335°
2026-05-05 14:00 60.55626 64.40384 15876 ft 216 kts 335°
2026-05-05 14:01 60.57020 64.39270 15807 ft 218 kts 335°
2026-05-05 14:01 60.58415 64.38161 15874 ft 215 kts 335°
2026-05-05 14:01 60.59804 64.37055 15896 ft 214 kts 335°
2026-05-05 14:01 60.61203 64.35934 15817 ft 218 kts 335°
2026-05-05 14:02 60.62598 64.34819 15856 ft 215 kts 334°
2026-05-05 14:02 60.63979 64.33719 15926 ft 213 kts 334°
2026-05-05 14:02 60.65360 64.32610 15844 ft 217 kts 334°
2026-05-05 14:02 60.66740 64.31486 15692 ft 210 kts 333°
2026-05-05 14:03 60.68101 64.30372 15283 ft 210 kts 333°
2026-05-05 14:03 60.69436 64.29284 14864 ft 211 kts 333°
2026-05-05 14:03 60.70794 64.28136 14461 ft 210 kts 332°
2026-05-05 14:03 60.72113 64.27010 14096 ft 208 kts 332°
2026-05-05 14:04 60.73446 64.25861 13668 ft 208 kts 332°
2026-05-05 14:04 60.74761 64.24689 13272 ft 207 kts 331°
2026-05-05 14:04 60.76063 64.23501 12928 ft 205 kts 332°
2026-05-05 14:04 60.77372 64.22380 12548 ft 204 kts 332°
2026-05-05 14:05 60.78671 64.21261 12143 ft 204 kts 332°
2026-05-05 14:05 60.79962 64.20163 11778 ft 203 kts 332°
2026-05-05 14:05 60.81268 64.19082 11422 ft 201 kts 333°
2026-05-05 14:05 60.82558 64.18037 11034 ft 201 kts 333°
2026-05-05 14:06 60.83852 64.16962 10646 ft 201 kts 332°
2026-05-05 14:06 60.85117 64.15878 10291 ft 198 kts 331°
2026-05-05 14:06 60.86361 64.14732 9932 ft 197 kts 330°
2026-05-05 14:06 60.87598 64.13563 9558 ft 196 kts 330°
2026-05-05 14:07 60.88837 64.12391 9177 ft 196 kts 330°
2026-05-05 14:07 60.90074 64.11238 8810 ft 196 kts 330°
2026-05-05 14:07 60.91312 64.10101 8436 ft 196 kts 330°
2026-05-05 14:07 60.92543 64.08939 8065 ft 196 kts 330°
2026-05-05 14:08 60.93776 64.07771 7710 ft 195 kts 329°
2026-05-05 14:08 60.94990 64.06614 7346 ft 195 kts 329°
2026-05-05 14:08 60.96220 64.05456 6960 ft 196 kts 330°
2026-05-05 14:08 60.97452 64.04280 6586 ft 196 kts 329°
2026-05-05 14:09 60.98684 64.03065 6227 ft 196 kts 328°
2026-05-05 14:09 60.99904 64.01839 5854 ft 197 kts 328°
2026-05-05 14:09 61.01123 64.00618 5496 ft 197 kts 329°
2026-05-05 14:09 61.02342 63.99394 5156 ft 196 kts 329°
2026-05-05 14:10 61.03554 63.98169 4800 ft 196 kts 330°
2026-05-05 14:10 61.04790 63.96927 4438 ft 197 kts 330°
2026-05-05 14:10 61.06022 63.95707 4085 ft 198 kts 331°
2026-05-05 14:10 61.07273 63.94530 3737 ft 198 kts 332°
2026-05-05 14:11 61.08514 63.93372 3440 ft 195 kts 332°
2026-05-05 14:11 61.09708 63.92222 3230 ft 189 kts 331°
2026-05-05 14:11 61.10902 63.91021 2940 ft 188 kts 329°
2026-05-05 14:11 61.12010 63.89711 2696 ft 184 kts 323°
2026-05-05 14:12 61.13044 63.88137 2366 ft 185 kts 317°
2026-05-05 14:12 61.14108 63.86636 2169 ft 180 kts 325°
2026-05-05 14:12 61.15142 63.85409 2087 ft 171 kts 328°
2026-05-05 14:12 61.16208 63.84225 1999 ft 174 kts 329°
2026-05-05 14:13 61.17242 63.83155 2185 ft 162 kts 330°
2026-05-05 14:13 61.18229 63.82182 2121 ft 152 kts 330°
2026-05-05 14:13 61.19160 63.81221 2005 ft 150 kts 328°
2026-05-05 14:13 61.20031 63.80229 2082 ft 137 kts 326°
2026-05-05 14:14 61.20854 63.79291 2074 ft 134 kts 325°
2026-05-05 14:14 61.21667 63.78316 1883 ft 139 kts 323°
2026-05-05 14:14 61.22478 63.77278 1774 ft 135 kts 324°
2026-05-05 14:14 61.23277 63.76272 1623 ft 136 kts 323°
2026-05-05 14:15 61.24073 63.75219 1502 ft 133 kts 323°
2026-05-05 14:15 61.24833 63.74140 1343 ft 134 kts 320°
2026-05-05 14:15 61.25572 63.72982 1240 ft 132 kts 318°
2026-05-05 14:15 61.26267 63.71791 1122 ft 131 kts 316°
2026-05-05 14:16 61.26965 63.70569 1042 ft 130 kts 316°
2026-05-05 14:16 61.27591 63.69225 961 ft 129 kts 305°
2026-05-05 14:16 61.28173 63.67795 926 ft 128 kts 311°
2026-05-05 14:16 61.28793 63.66478 890 ft 128 kts 311°
2026-05-05 14:17 61.29471 63.65271 816 ft 130 kts 320°
2026-05-05 14:17 61.30178 63.64070 674 ft 131 kts 320°
2026-05-05 14:17 61.30906 63.62904 516 ft 131 kts 321°
2026-05-05 14:17 61.31621 63.61768 358 ft 124 kts 321°
2026-05-05 14:18 61.32213 63.60809 348 ft 89 kts 320°
2026-05-05 14:18 61.32562 63.60241 349 ft 39 kts 322°
2026-05-05 14:18 61.32640 63.60112 348 ft 0 kts 320°